Location: Holbach
(51.5399°N, 10.6036°E)
Time: 06:42:58
(UTC+00:00)

Okean 2 Rocket - Pass Details

Date: 18 September 2020
Orbit: 616 x 642 km, 82.5° (Epoch: 21 October)

Event Time Altitude Azimuth Distance (km) Brightness Sun altitude
Rises 18:04:18 0° 157° (SSE) 2,935 6.2 -7.0°
Reaches altitude 10° 18:06:47 10° 146° (SE) 2,028 5.3 -7.4°
Maximum altitude 18:10:35 27° 88° (E) 1,219 4.0 -8.0°
Drops below altitude 10° 18:14:22 10° 31° (NNE) 2,030 5.5 -8.5°
Sets 18:16:51 0° 20° (NNE) 2,939 6.5 -8.9°
